Regional Weather Roundup
Issued by NWS Sterling, VA

Home | Current Version | Previous Version | Text Only | Print | Product List | Glossary Off
Versions: 1 2 3 4 5 6 7 8 9 10 11 12 13 14 15 16 17 18 19 20 21 22 23 24 25 26 27 28 29 30 31 32 33 34 35 36 37 38 39 40 41 42 43 44 45 46 47 48 49 50

894
ASUS41 KLWX 201010
RWRLWX

REGIONAL WEATHER ROUNDUP
NATIONAL WEATHER SERVICE BALTIMORE MD/WASHINGTON DC
500 AM EST MON NOV 20 2017

Note: "FAIR" indicates few or no clouds below 12,000 feet
with no significant weather and/or obstructions to visibility.
 TC=TEMPERATURE CELSIUS

 * =Non NWS site. Station does not report precipitation (e.g. rain,
    snow, etc.), thunder, or fog.

DCZ001-MDZ009-015-VAZ040>042-051-053>054-201100-
WASHINGTON METRO

CITY           SKY/WX    TMP DP  RH WIND       PRES   REMARKS
WASHINGTON NAT PTCLDY    41  21  44 NW13      30.10R
DULLES         PTCLDY    38  21  50 NW16      30.10R WCI  29
ANDREWS AFB    CLEAR     39  20  46 W12       30.07R
FT BELVOIR     CLEAR     39  19  45 W9        30.10R
COLLEGE PARK*  PTCLDY    39  23  52 W7        30.08R
LEESBURG*      PTCLDY    37  25  60 NW21G33   30.09R WCI  27
MANASSAS*      CLEAR     35  22  58 NW8       30.11R WCI  29
GAITHERSBURG*  PTCLDY    36  23  59 NW7       30.07R

$$

MDZ006>007-011-014-201100-
BALTIMORE METRO

CITY           SKY/WX    TMP DP  RH WIND       PRES   REMARKS
BWI AIRPORT    MOCLDY    39  23  52 W15       30.07R
MARTIN STATE   MOCLDY    39  23  52 W15G24    30.09R
FORT MEADE*    PTCLDY    37  27  65 NW8       30.10R

$$

MDZ012-015-019>023-201100-
MARYLAND EASTERN SHORE

CITY           SKY/WX    TMP DP  RH WIND       PRES   REMARKS
OCEAN CITY     CLEAR     39  24  55 NW8       30.07R
SALISBURY      PTCLDY    40  26  57 NW7       30.07R
CAMBRIDGE*     PTCLDY    41  25  52 W6G14     30.07R

$$

MDZ017>025-201100-
SOUTHERN MARYLAND

CITY           SKY/WX    TMP DP  RH WIND       PRES   REMARKS
PATUXENT RIVER NOT AVBL
ST INIGOES     NOT AVBL
LEONARDTOWN*   CLEAR     37  23  56 NW3       30.10R

$$

MDZ003>005-201100-
NORTH CENTRAL MARYLAND

CITY           SKY/WX    TMP DP  RH WIND       PRES   REMARKS
FREDERICK*     CLOUDY    37  21  52 W3        30.11R
HAGERSTOWN APT CLOUDY    36  23  59 W8        30.06R
WESTMINSTER*   MOCLDY    36  21  55 W10G21    30.03R WCI  28

$$

MDZ501>502-201100-
WESTERN MARYLAND

CITY           SKY/WX    TMP DP  RH WIND       PRES   REMARKS
OAKLAND*       CLOUDY    21  18  86 W13G20    29.99R WCI   9
CUMBERLAND*    CLEAR     34  21  60 W17G24    30.13R WCI  23

$$

VAZ025>031-201100-
SHENANDOAH VALLEY

CITY           SKY/WX    TMP DP  RH WIND       PRES   REMARKS
WINCHESTER*    CLEAR     34  19  55 W12G20    30.09R WCI  25
FRONT ROYAL*   CLEAR     36  21  55 W7G18     30.08R
LURAY*         CLEAR     34  21  60 S5        30.08R
NEW MARKET*    CLEAR     30  20  68 CALM      30.08R
STAUNTON*      CLEAR     24  19  81 CALM      30.11R
WAYNESBORO*    CLEAR     30  21  69 CALM      30.08R

$$

WVZ021-048>050-054>055-201100-
EASTERN WEST VIRGINIA PANHANDLE

CITY           SKY/WX    TMP DP  RH WIND       PRES   REMARKS
MARTINSBURG    PTCLDY    36  19  50 NW8G22    30.07R
PETERSBURG*    CLEAR     35  19  53 W12G26    30.10R WCI  26

$$

VAZ036>039-050-201100-
CENTRAL FOOTHILLS

CITY           SKY/WX    TMP DP  RH WIND       PRES   REMARKS
CHARLOTTESVILL CLEAR     38  19  46 W3        30.10R
CULPEPER*      CLEAR     30  21  69 CALM      30.11R
ORANGE*        CLEAR     32  21  64 CALM      30.10R
GORDONSVILLE*  CLEAR     31  23  72 CALM      30.10R
WARRENTON*     NOT AVBL

$$

VAZ055>057-201100-
NORTH AND CENTRAL PIEDMONT

CITY           SKY/WX    TMP DP  RH WIND       PRES   REMARKS
FREDERICKSBRG* CLEAR     31  28  88 CALM      30.11R
STAFFORD*      CLEAR     28  24  83 CALM      30.14R

$$

NCZ024-NYZ072-PAZ021-071-VAZ022-071-201100-
OTHER REGIONAL OBSERVATIONS

CITY           SKY/WX    TMP DP  RH WIND       PRES   REMARKS
NEW YORK CITY  MOCLDY    37  24  59 VRB6G18   29.95R
PHILADELPHIA   PTCLDY    39  25  57 W15       30.02R
PITTSBURGH     CLOUDY    31  22  69 SW12      30.09R WCI  22
ROANOKE        CLEAR     35  21  56 W8        30.14R WCI  29
RICHMOND       CLEAR     36  25  64 W7        30.11R
RALEIGH        CLEAR     31  27  85 CALM      30.16R

$$

ANZ530>537-201100-
MARINE OBSERVATIONS

STATION/POSITION TIME  TEMP    WIND        PRES
                       AIR SEA DIR/SP/G
                 (UTC) (F)     (DEG/KT/KT) (MB)
THOMAS PT LIGHT  1000   42 52  320/ 13/ 16   N/A
BALT KEY BRIDGE  0942   41     290/ 11/ 13 1018.2R
COVE POINT       0942   42     320/ 12/ 16 1019.2R
LEWISETTA        0942   39 50  300/  7/  9 1018.9R
SOLOMONS ISLAND  0942   42 54  310/  8/ 11 1018.3R
PINEY POINT      0948          340/ 17/ 20   N/A

$$





USA.gov is the U.S. government's official web portal to all federal, state and local government web resources and services.